AST,Max TemperatureF,Mean TemperatureF,Min TemperatureF,Max Dew PointF,MeanDew PointF,Min DewpointF,Max Humidity, Mean Humidity, Min Humidity, Max Sea Level PressureIn, Mean Sea Level PressureIn, Min Sea Level PressureIn, Max VisibilityMiles, Mean VisibilityMiles, Min VisibilityMiles, Max Wind SpeedMPH, Mean Wind SpeedMPH, Max Gust SpeedMPH,PrecipitationIn, CloudCover, Events, WindDirDegrees
2010-10-1,84,81,78,77,76,73,89,80,74,29.89,29.85,29.80,6,6,2,23,10,38,0.00,4,Rain,119
2010-10-2,87,84,80,79,77,75,94,82,70,30.04,29.82,29.77,6,6,1,13,8,,0.00,4,Rain,80
2010-10-3,86,82,77,79,77,75,94,85,74,29.83,29.77,29.71,6,6,2,9,4,,0.00,4,Rain-Thunderstorm,118
2010-10-4,86,82,77,77,77,75,94,89,74,29.83,29.78,29.74,6,6,2,10,6,,0.00,4,Rain-Thunderstorm,162
2010-10-5,82,78,75,77,75,70,94,86,79,29.86,29.79,29.74,6,4,1,25,17,39,0.00,5,Rain,190
2010-10-6,84,80,75,79,75,73,100,88,79,29.83,29.78,29.74,6,4,0,24,19,48,0.00,5,Rain-Thunderstorm,198
2010-10-7,84,80,77,79,76,73,100,87,79,29.92,29.85,29.77,6,5,0,25,13,,0.00,4,Rain-Thunderstorm,198
2010-10-8,87,84,82,81,78,77,84,81,74,29.98,29.91,29.86,6,6,6,14,10,,0.00,3,,185
2010-10-9,87,84,80,79,77,73,89,81,70,29.98,29.93,29.89,6,6,6,7,4,,0.00,1,,135
2010-10-10,86,83,80,79,78,77,89,84,79,29.98,29.93,29.89,6,6,6,10,5,,0.00,2,Rain,132
2010-10-11,87,84,82,77,77,77,84,78,70,30.01,29.95,29.92,6,6,6,6,4,,0.00,1,,148
2010-10-12,87,84,80,77,76,75,89,79,70,30.01,29.95,29.92,6,6,6,7,4,,0.00,2,,111
2010-10-13,86,83,80,77,76,75,89,78,70,29.98,29.94,29.92,6,6,6,10,5,,0.00,1,,108
2010-10-14,87,84,80,75,75,75,84,77,66,29.98,29.93,29.89,6,6,6,10,6,,0.00,2,Rain,102
2010-10-15,87,84,80,77,75,73,84,75,66,29.98,29.92,29.89,6,6,6,10,6,,0.00,2,,121
2010-10-16,86,83,80,75,73,70,79,70,58,29.98,29.93,29.89,6,6,6,13,7,,0.00,2,,112
2010-10-17,87,82,78,73,71,68,79,69,58,29.98,29.94,29.89,6,6,6,8,5,,0.00,2,,92
2010-10-18,86,82,78,72,72,72,78,71,62,29.95,29.91,29.89,6,6,6,9,6,,0.00,1,,93
2010-10-19,87,84,80,75,72,70,84,70,58,30.01,29.95,29.92,6,6,6,10,6,,0.00,2,,97
2010-10-20,86,83,80,77,75,72,84,78,70,29.98,29.93,29.89,6,6,6,18,8,,0.00,3,Rain,103
2010-10-21,86,82,78,77,74,72,89,75,62,29.98,29.93,29.89,6,6,6,10,7,,0.00,2,Rain,123
2010-10-22,87,82,77,79,75,73,89,80,70,30.01,29.96,29.92,6,6,6,16,6,,0.00,2,,97
2010-10-23,86,80,75,77,74,72,89,80,74,29.98,29.95,29.92,6,6,6,16,9,,0.00,3,Rain,81
2010-10-24,86,82,77,77,74,72,89,78,70,29.95,29.91,29.86,6,6,5,18,11,,0.00,3,Rain,82
2010-10-25,87,81,75,77,74,70,89,79,66,29.95,29.91,29.86,6,6,4,17,13,,0.00,3,Rain,75
2010-10-26,86,82,78,77,74,72,84,75,70,29.95,29.91,29.86,6,6,4,15,12,,0.00,3,Rain,73
2010-10-27,86,82,77,77,74,72,89,76,66,29.95,29.89,29.86,6,6,6,17,13,,0.00,2,Rain,69
2010-10-28,86,82,78,75,73,70,89,74,62,29.95,29.86,29.83,6,6,6,16,11,,0.00,2,Rain,74
2010-10-29,86,83,80,77,75,72,84,77,70,29.95,29.89,29.83,6,6,6,14,8,,0.00,2,,113
2010-10-30,86,83,80,77,75,73,89,76,66,29.95,29.89,29.86,6,6,6,18,11,32,0.00,3,,84
2010-10-31,87,81,75,77,74,72,94,76,66,29.98,29.92,29.86,6,6,1,24,17,,0.00,5,Rain,98